TimeMDT,TemperatureF,Dew PointF,Humidity,Sea Level PressureIn,VisibilityMPH,Wind Direction,Wind SpeedMPH,Gust SpeedMPH,PrecipitationIn,Events,Conditions,WindDirDegrees,DateUTC
12:00 AM,37,33,82,30.20,28,NW,4.6,,,,Partly Cloudy,320,2012-10-08 06:00:00
12:00 AM,37.4,33.8,87,30.20,30.0,NW,4.6,-,N/A,,Mostly Cloudy,310,2012-10-08 06:00:00
1:00 AM,39.2,33.8,81,30.19,30.0,WSW,6.9,-,N/A,,Mostly Cloudy,250,2012-10-08 07:00:00
2:00 AM,37.4,33.8,87,30.19,30.0,West,3.5,-,N/A,,Mostly Cloudy,270,2012-10-08 08:00:00
3:00 AM,37.4,33.8,87,30.19,30.0,West,8.1,-,N/A,,Mostly Cloudy,270,2012-10-08 09:00:00
4:00 AM,32.0,30.2,93,30.18,30.0,West,2.3,-,N/A,,Mostly Cloudy,280,2012-10-08 10:00:00
5:00 AM,32.0,32.0,100,30.17,30.0,NW,4.6,-,N/A,,Mostly Cloudy,320,2012-10-08 11:00:00
6:00 AM,34,31,84,30.17,28,Calm,Calm,,,,Scattered Clouds,,2012-10-08 12:00:00
6:00 AM,33.8,30.2,87,30.17,30.0,Calm,Calm,-,N/A,,Mostly Cloudy,0,2012-10-08 12:00:00
7:00 AM,30.2,28.4,93,30.16,30.0,ENE,2.3,-,N/A,,Mostly Cloudy,70,2012-10-08 13:00:00
8:00 AM,32.0,28.4,87,30.14,30.0,ENE,2.3,-,N/A,,Mostly Cloudy,70,2012-10-08 14:00:00
9:00 AM,32.0,30.2,93,30.15,30.0,North,4.6,-,N/A,,Mostly Cloudy,10,2012-10-08 15:00:00
9:07 AM,-9999,-9999,N/A,-9999,30.0,North,5.8,-,N/A,Rain,Light Rain,10,2012-10-08 15:07:00
9:25 AM,-9999,-9999,N/A,-9999,30.0,NNE,4.6,-,N/A,,Mostly Cloudy,30,2012-10-08 15:25:00
10:00 AM,37.4,33.8,87,30.15,30.0,Calm,Calm,-,N/A,Rain,Light Rain,0,2012-10-08 16:00:00
10:38 AM,-9999,-9999,N/A,-9999,30.0,ESE,3.5,-,N/A,,Mostly Cloudy,120,2012-10-08 16:38:00
11:00 AM,37.4,33.8,87,30.15,30.0,SE,2.3,-,N/A,,Mostly Cloudy,140,2012-10-08 17:00:00
12:00 PM,39,36,84,30.14,28,ENE,2.3,,,,Partly Cloudy,60,2012-10-08 18:00:00
12:00 PM,39.2,35.6,87,30.14,30.0,ENE,3.5,-,N/A,,Mostly Cloudy,70,2012-10-08 18:00:00
1:00 PM,41.0,35.6,81,30.14,30.0,Calm,Calm,-,N/A,,Mostly Cloudy,0,2012-10-08 19:00:00
2:00 PM,41.0,35.6,81,30.12,30.0,Calm,Calm,-,N/A,,Mostly Cloudy,0,2012-10-08 20:00:00
3:00 PM,41.0,33.8,76,30.11,30.0,WNW,5.8,-,N/A,,Mostly Cloudy,300,2012-10-08 21:00:00
4:00 PM,42.8,33.8,70,30.11,30.0,WNW,6.9,-,N/A,,Mostly Cloudy,290,2012-10-08 22:00:00
5:00 PM,42.8,32.0,66,30.10,30.0,WNW,9.2,-,N/A,,Overcast,290,2012-10-08 23:00:00
6:00 PM,42,31,53,30.09,28,WNW,6.9,,,,Overcast,290,2012-10-09 00:00:00
6:00 PM,41.0,30.2,65,30.09,30.0,WNW,5.8,-,N/A,,Overcast,290,2012-10-09 00:00:00
7:00 PM,41.0,30.2,65,30.09,30.0,NW,3.5,-,N/A,,Overcast,310,2012-10-09 01:00:00
8:00 PM,39.2,30.2,70,30.10,30.0,WNW,5.8,-,N/A,,Overcast,290,2012-10-09 02:00:00
9:00 PM,37.4,32.0,81,30.11,30.0,WNW,6.9,-,N/A,,Overcast,290,2012-10-09 03:00:00
9:27 PM,-9999,-9999,N/A,-9999,20.0,WNW,10.4,-,N/A,Rain,Light Rain,290,2012-10-09 03:27:00
10:00 PM,37.4,33.8,87,30.12,20.0,WNW,8.1,-,N/A,Rain,Light Rain,300,2012-10-09 04:00:00
11:42 PM,-9999,-9999,N/A,-9999,20.0,West,16.1,-,N/A,,Mostly Cloudy,280,2012-10-09 05:42:00